Regional Weather Roundup
Issued by NWS Wakefield, VA

Home | Current Version | Previous Version | Text Only | Print | Product List | Glossary Off
Versions: 1 2 3 4 5 6 7 8 9 10 11 12 13 14 15 16 17 18 19 20 21 22 23 24 25 26 27

000
ASUS41 KAKQ 010415
RWRAKQ

REGIONAL WEATHER ROUNDUP
NATIONAL WEATHER SERVICE WAKEFIELD VA
1200 AM EDT SUN MAY 01 2016

Note: "fair" indicates few or no clouds below 12,000 feet with no
significant weather and/or obstructions to visibility. * = Denotes
station may not report precipitation (e.g., rain,snow,etc.),
thunder or fog.

VAZ042-051-052>054-056-010500-
NORTHERN VIRGINIA

CITY           SKY/WX    TMP DP  RH WIND       PRES   REMARKS
WASH NATIONAL  LGT RAIN  54  51  90 SE5       30.19F
DULLES         CLOUDY    52  50  93 S3        30.19S
FORT BELVOIR   MOCLDY    54  50  87 CALM      30.19F
QUANTICO       LGT RAIN  55  50  83 S9        30.19F
FREDERICKSBRG* LGT RAIN  53  53 100 SE5       30.17S
STAFFORD*      DRIZZLE   52  50  95 CALM      30.22R
WARRENTON      DRIZZLE   53  48  82 CALM      30.18R
CULPEPER*      LGT RAIN  54  52  95 CALM      30.19R
MANASSAS*      CLOUDY    54  54 100 SE3       30.19S
LEESBURG*      LGT RAIN  54  54 100 SE5       30.19S
WINCHESTER     DRIZZLE   52  50  93 SE6       30.14F
FRONT ROYAL*   CLOUDY    52  52 100 CALM      30.13F
LURAY*         DRIZZLE   54  54 100 CALM      30.14S
$$

VAZ048-049-060>072-079>083-010500-
CENTRAL AND SOUTH CENTRAL VIRGINIA

CITY           SKY/WX    TMP DP  RH WIND       PRES   REMARKS
RICHMOND       CLOUDY    54  51  90 SE8       30.19F
CHESTERFIELD*  CLOUDY    55  41  58 SE6       30.20F
PETERSBURG*    CLOUDY    56  51  84 E5        30.19F
HANOVER        CLOUDY    54  49  83 VRB5      30.20F
TAPPAHANNOCK*  CLOUDY    54  53  96 SE5       30.20F
QUINTON*       CLOUDY    54  51  91 E8        30.19F
CHARLOTTSVILLE LGT RAIN  55  53  93 S5        30.16S FOG
GORDONSVILLE*  CLOUDY    53  53  98 CALM      30.16S
ORANGE*        LGT RAIN  54  54 100 CALM      30.18S
LOUISA*        CLOUDY    57  55  94 SE3       30.16S
BUMPASS*       CLOUDY    53  51  95 SE3       30.17F
FARMVILLE*     CLOUDY    56  56 100 SE3       30.15F
CREWE*         CLOUDY    55  55 100 E3        30.17F
FORT PICKETT*  NOT AVBL
CHASE CITY*    CLOUDY    55  53  94 E5        30.16F
CLARKSVILLE*   CLOUDY    55  55 100 E6        30.16F
SOUTH HILL*    CLOUDY    55  52  92 CALM      30.22F
LAWRENCEVILLE* CLOUDY    55  51  88 CALM      30.17F
EMPORIA*       CLOUDY    54  50  87 E7        30.20F
$$

VAZ088>098-010500-
SOUTHEAST VIRGINIA

CITY           SKY/WX    TMP DP  RH WIND       PRES   REMARKS
NORFOLK        FAIR      54  49  83 E3        30.20S
VIRGINIA BEACH CLOUDY    57  49  74 E8        30.19F
NORFOLK NAVAL  MOCLDY    55  50  83 E7        30.21S
WEST POINT*    CLOUDY    53  50  90 E5        30.23S
SALUDA*        CLOUDY    54  50  88 E6        30.21S
NEWPORT NEWS   MOCLDY    54  50  86 E6        30.21R
LANGLEY AFB    MOCLDY    55  50  83 E7        30.20S
FORT EUSTIS    MOCLDY    55  50  83 VRB3      30.19S
WILLIAMSBURG*  FAIR      55  52  88 E5        30.21F
HR EXEC AP*    CLOUDY    54  48  82 CALM      30.23R
FRANKLIN*      CLOUDY    54  49  83 E3        30.21S
US460-WAKEFLD  CLOUDY    55  50  83 CALM      30.20S
$$

VAZ020-022-025-037-045-010500-
WEST CENTRAL AND SOUTHWEST VIRGINIA

CITY           SKY/WX    TMP DP  RH WIND       PRES   REMARKS
STAUNTON*      CLOUDY    55  55  98 S7        30.17R
WAYNESBORO*    CLOUDY    52  51  95 MISG      30.15R
HOT SPRINGS VA LGT RAIN  48  48 100 S14G20    30.13S VSB<1/4
LYNCHBURG      LGT RAIN  54  54 100 SE3       30.17F
DANVILLE       HVY RAIN  56  55  97 E6        30.14F FOG
SOUTH BOSTON*  CLOUDY    55  54  95 E5        30.15F
MARTINSVILLE   LGT RAIN  53  52  98 CALM      30.17F
ROANOKE        RAIN      54  53  97 SE7       30.17F FOG
BLACKSBURG     LGT RAIN  53  53 100 E7        30.17F
DUBLIN*        LGT RAIN  54  54 100 E6        30.14F
MARION*        CLOUDY    56  55  94 E8        30.13F
HILLSVILLE*    RAIN      54  54 100 SE5       30.12F
RICHLANDS*     RAIN      57  56  97 SE6       30.08R
WISE*          RAIN      61  59  94 S5        30.06F
ABINGDON*      RAIN      61  60  97 E7        30.08R
$$

MDZ021>025-VAZ099-100-010500-
SOUTHERN MARYLAND AND THE DELMARVA PENINSULA

CITY           SKY/WX    TMP DP  RH WIND       PRES   REMARKS
PATUXENT RIVER CLOUDY    53  46  77 SE9       30.20F
BAY BRIDGE APT NOT AVBL
LEONARDTOWN    CLOUDY    52  45  76 SE7       30.21F
DOVER          CLOUDY    51  46  83 SE5       30.21F
GEORGETOWN     CLOUDY    49  45  86 SE3       30.22F
EASTON         CLOUDY   N/A N/A N/A SE3       30.24F
CAMBRIDGE      CLOUDY    48  43  81 SE3       30.20F
SALISBURY      LGT RAIN  50  46  86 E3        30.21F
OCEAN CITY     CLOUDY    51  45  79 E5        30.23S
WALLOPS ISLAND FAIR      52  45  77 E7        30.22F
ACCOMACK*      CLOUDY   N/A N/A N/A E5        30.20F
$$

NCZ012>017-030>032-010500-
NORTH CENTRAL AND EASTERN NORTH CAROLINA

CITY           SKY/WX    TMP DP  RH WIND       PRES   REMARKS
ROANOKE RAPIDS CLOUDY    57  52  82 E3        30.18F
RALEIGH        CLOUDY    61  55  81 SE9       30.14F
ELIZABETH CITY MOCLDY    55  52  89 E9        30.19F
AHOSKIE*       CLOUDY    55  51  86 E5        30.19F
EDENTON*       CLOUDY    58  56  93 E7        30.19F
CURRITUCK*     CLOUDY    56  52  87 E6        30.20F
KILL DEVIL HLS PTCLDY    54  53  95 NE7       30.19S
MANTEO         NOT AVBL
CAPE HATTERAS  PTCLDY    58  55  90 NE7       30.17F
TARBORO*       CLOUDY    59  54  83 CALM      30.19S
GOLDSBORO      CLOUDY    63  63 100 E9        30.13F
WASHINGTON     MOCLDY    56  53  88 E5        30.18S
GREENVILLE     CLOUDY    59  54  82 E5        30.19S
NEW BERN       CLOUDY    60  56  86 E7        30.17F
WILMINGTON     MOCLDY    63  59  87 E9        30.13F
$$

VAZ048-010500-
ELSEWHERE

CITY           SKY/WX    TMP DP  RH WIND       PRES   REMARKS
HARRISBURG PA  LGT RAIN  55  47  74 S8        30.17F
BALTIMORE      LGT RAIN  53  49  86 E10       30.20S
ANNAPOLIS      CLOUDY    54  46  74 MISG      30.20F
ANDREWS AFB    MOCLDY    52  50  91 SE5       30.18F
PHILADELPHIA   LGT RAIN  52  35  52 SE5       30.23F
HENDERSON NC   CLOUDY    57  57 100 E5        30.16F
GREENSBORO     CLOUDY    58  57  97 E7        30.11F
ROCKY MOUNT    CLOUDY    59  53  80 E6        30.16F
$$

VAZ100-010500-
MARINE

STATION/POSITION TIME  TEMP    WIND        PRES    WAVE   SWELL
                       AIR SEA DIR/SP/G            HT/PER HT/PER
                 (UTC) (F)     (DEG/KT/KT) (MB)    (FT/S) (FT/S)
BRANDYWINE LGT   0300   51     130/ 10/ 11 1023.6F
CAPE MAY NJ      0300      58                N/A
LEWES DE         0300      56                N/A
15NM E FENWICK I 0350   50 51              1023.5F   5/ 8
OCEAN-CITY-INLET 0300      56                N/A
WACHAPREAGUE VA  0300      61                N/A
THOMAS POINT MD  0400   53 57  130/ 15/ 16 1023.7F
GOOSES REEF MD   0400   53 57  140/ 12/ 14 1023.5F   1/ 2
COVE POINT MD    0300   53     170/ 13/ 15 1023.9R
SOLOMONS ISLAND  0300      59                N/A
BISHOPS HEAD MD  0300      58                N/A
PINEY POINT MD   0300          150/ 13/ 15   N/A
POTOMAC MD       0400   54 58  150/ 12/ 16 1021.9F   2/ 3
CAMBRIDGE MD     0300      60                N/A
LEWISETTA VA     0300      60                N/A
RAPPAHANNOCK LGT 0300          100/ 12/ 13 1023.5F
STINGRAY PT      0400   55 60  130/ 12/ 14 1023.3F   2/ 3
YORK RVR RNG VA  0300   56     110/ 14/ 17 1022.0F
YORKTOWN VA      0300      61                N/A
JAMESTOWN VA     0400   55 65   90/  8/ 10   N/A     0
DOMINION TERM VA 0300   56      90/ 11/ 17 1022.6F
KIPTOPEKE VA     0300      60                N/A
CHES BAY BRIDGE  0300      60                N/A
CAPE HENRY VA    0300   54      80/ 16/ 19   N/A
CHESAPEAKE LGHT  0300   53      70/ 14/ 15 1023.8R
WILLOUBY STN VA  0300   55     100/ 14/ 15 1023.3F
CAPE HENRY BUOY  0312      55                N/A     5/10   2/11
CAPE CHARLES BUO 0326      57                N/A     5/ 8   3/ 8
OFFSHORE WE BUOY 0321      54                N/A     6/ 9   5/ 9
64NM E OF VA BCH 0350   54 53   50/  8/ 10 1022.1F   6/10   5/10
DUCK PIER NC     0300      67                N/A
44100 DUCK FRF   0324      54                N/A     5/11   2/11
44056 DUCK FRF   0311      58                N/A     5/10   2/11
OREGON INLET NC  0300      62                N/A
HATTERAS NC      0300      69                N/A
DIAMOND SHLS NC  0350   64 74   30/ 14/ 16 1021.1F   5/ 9   3/ 9
CAPE LOOKOUT NC  0400   62      60/ 11/ 13 1020.9F
$$




USA.gov is the U.S. government's official web portal to all federal, state and local government web resources and services.